Weather History for Marfa, TX

Change the Weather History Date:

Wednesday, February 20, 2013

  Actual Average Record
Temperature  
Mean Temperature 48 °F -  
Max Temperature 73 °F 59 °F 78 °F (2011)
Min Temperature 24 °F 29 °F -2 °F (1998)
Degree Days  
Heating Degree Days 16    
Moisture  
Dew Point 21 °F    
Average Humidity 39    
Maximum Humidity 86    
Minimum Humidity 10    
Precipitation  
Precipitation 0.00 in - - ()
Sea Level Pressure  
Sea Level Pressure 29.77 in    
Wind  
Wind Speed 12 mph (SSW)    
Max Wind Speed 29 mph    
Max Gust Speed 39 mph    
Visibility 10 miles    
Events      
Averages and records for this station are not official NWS values.
T = Trace of Precipitation, MM = Missing Value Source: NWS Daily Summary

Daily Weather History Graph

Daily Weather History Graph

Search for Another Location

Airport:

Trip Planner

Search our weather history database for the weather conditions in past years. The results will help you decide how hot, cold, wet, or windy it might be!

Date:

Astronomy

Feb. 20, 2013 Rise Set
Actual Time 7:31 AM CST 6:48 PM CST
Civil Twilight 7:06 AM CST 7:12 PM CST
Nautical Twilight 6:38 AM CST 7:40 PM CST
Astronomical Twilight 6:11 AM CST 8:08 PM CST
Moon 2:24 PM CST 3:41 AM CST
Length of Visible Light 12h 05m
Length of Day
11h 17m
Waxing Gibbous, 76% of the Moon is Illuminated
Feb 20
Waxing Gibbous
Feb 25
Full
Mar 4
Last Quarter
Mar 11
New
Mar 19
First Quarter

Hourly Weather History & Observations

Time (CST) Temp. Windchill Dew Point Humidity Pressure Visibility Wind Dir Wind Speed Gust Speed Precip Events Conditions
12:15 AM 44.6 °F 39.7 °F 26.6 °F 49% 29.99 in 10.0 mi East 9.2 mph - N/A   Clear
12:35 AM 44.6 °F 39.2 °F 26.6 °F 49% 29.97 in 10.0 mi East 10.4 mph - N/A   Clear
12:55 AM 44.6 °F 39.2 °F 26.6 °F 49% 29.96 in 10.0 mi East 10.4 mph - N/A   Scattered Clouds
1:15 AM 42.8 °F 37.0 °F 26.6 °F 53% 29.95 in 10.0 mi NE 10.4 mph - N/A   Mostly Cloudy
1:35 AM 42.8 °F 37.0 °F 26.6 °F 53% 29.94 in 10.0 mi ENE 10.4 mph - N/A   Overcast
1:55 AM 44.6 °F 40.2 °F 26.6 °F 49% 29.93 in 10.0 mi ESE 8.1 mph - N/A   Mostly Cloudy
2:15 AM 42.8 °F 39.3 °F 24.8 °F 49% 29.94 in 10.0 mi East 5.8 mph - N/A   Scattered Clouds
2:35 AM 39.2 °F - 24.8 °F 56% 29.93 in 10.0 mi Calm Calm - N/A   Clear
2:55 AM 35.6 °F - 23.0 °F 60% 29.93 in 10.0 mi Calm Calm - N/A   Clear
3:15 AM 35.6 °F - 23.0 °F 60% 29.91 in 10.0 mi Calm Calm - N/A   Clear
3:35 AM 33.8 °F - 24.8 °F 70% 29.91 in 10.0 mi Calm Calm - N/A   Clear
3:55 AM 32.0 °F 26.4 °F 21.2 °F 64% 29.90 in 10.0 mi NE 5.8 mph - N/A   Clear
4:15 AM 30.2 °F 25.4 °F 23.0 °F 75% 29.90 in 10.0 mi NE 4.6 mph - N/A   Clear
4:35 AM 28.4 °F 19.7 °F 21.2 °F 74% 29.89 in 10.0 mi NNW 9.2 mph - N/A   Clear
4:55 AM 30.2 °F 26.7 °F 21.2 °F 69% 29.89 in 10.0 mi North 3.5 mph - N/A   Clear
5:15 AM 28.4 °F 24.6 °F 21.2 °F 74% 29.88 in 10.0 mi North 3.5 mph - N/A   Clear
5:35 AM 28.4 °F 22.2 °F 21.2 °F 74% 29.88 in 10.0 mi NNW 5.8 mph - N/A   Clear
5:55 AM 28.4 °F 22.2 °F 23.0 °F 80% 29.87 in 10.0 mi North 5.8 mph - N/A   Clear
6:15 AM 26.6 °F 21.2 °F 21.2 °F 80% 29.87 in 10.0 mi NNE 4.6 mph - N/A   Clear
6:55 AM 24.8 °F 19.1 °F 21.2 °F 86% 29.87 in 10.0 mi North 4.6 mph - N/A   Clear
7:15 AM 24.8 °F 19.1 °F 21.2 °F 86% 29.87 in 10.0 mi NNW 4.6 mph - N/A   Clear
7:35 AM 24.8 °F 19.1 °F 19.4 °F 80% 29.87 in 10.0 mi NNW 4.6 mph 20.7 mph N/A   Clear
7:55 AM 24.8 °F 17.9 °F 21.2 °F 86% 29.87 in 10.0 mi NNE 5.8 mph - N/A   Clear
8:15 AM 30.2 °F 26.7 °F 26.6 °F 86% 29.87 in 10.0 mi NE 3.5 mph - N/A   Clear
8:35 AM 33.8 °F - 28.4 °F 81% 29.88 in 10.0 mi Calm Calm - N/A   Clear
9:15 AM 41.0 °F - 33.8 °F 76% 29.87 in 10.0 mi Calm Calm - N/A   Clear
9:35 AM 42.8 °F 40.1 °F 33.8 °F 70% 29.87 in 10.0 mi SSW 4.6 mph - N/A   Clear
9:55 AM 46.4 °F 42.4 °F 33.8 °F 62% 29.87 in 10.0 mi South 8.1 mph - N/A   Clear
10:15 AM 50.0 °F - 33.8 °F 54% 29.86 in 10.0 mi South 9.2 mph - N/A   Clear
10:35 AM 53.6 °F - 33.8 °F 47% 29.85 in 10.0 mi South 17.3 mph - N/A   Clear
10:55 AM 55.4 °F - 33.8 °F 44% 29.84 in 10.0 mi South 11.5 mph - N/A   Clear
11:15 AM 57.2 °F - 33.8 °F 41% 29.83 in 10.0 mi South 16.1 mph 21.9 mph N/A   Clear
11:35 AM 57.2 °F - 33.8 °F 41% 29.83 in 10.0 mi South 16.1 mph 21.9 mph N/A   Clear
11:55 AM 60.8 °F - 30.2 °F 31% 29.81 in 10.0 mi South 19.6 mph 26.5 mph N/A   Clear
12:15 PM 62.6 °F - 30.2 °F 30% 29.80 in 10.0 mi South 21.9 mph 27.6 mph N/A   Clear
12:35 PM 62.6 °F - 26.6 °F 26% 29.79 in 10.0 mi South 25.3 mph 29.9 mph N/A   Clear
12:55 PM 64.4 °F - 26.6 °F 24% 29.77 in 10.0 mi South 23.0 mph 27.6 mph N/A   Clear
1:15 PM 66.2 °F - 26.6 °F 23% 29.75 in 10.0 mi South 20.7 mph 27.6 mph N/A   Clear
1:35 PM 66.2 °F - 24.8 °F 21% 29.73 in 10.0 mi South 19.6 mph 29.9 mph N/A   Clear
1:55 PM 68.0 °F - 24.8 °F 20% 29.71 in 10.0 mi South 20.7 mph 28.8 mph N/A   Clear
2:15 PM 69.8 °F - 15.8 °F 13% 29.69 in 10.0 mi South 27.6 mph 35.7 mph N/A   Clear
2:35 PM 71.6 °F - 14.0 °F 11% 29.68 in 10.0 mi SSW 28.8 mph 35.7 mph N/A   Clear
2:55 PM 71.6 °F - 12.2 °F 10% 29.66 in 10.0 mi South 25.3 mph 39.1 mph N/A   Clear
3:15 PM 71.6 °F - 12.2 °F 10% 29.65 in 10.0 mi SSW 24.2 mph 34.5 mph N/A   Clear
3:35 PM 71.6 °F - 14.0 °F 11% 29.63 in 10.0 mi South 27.6 mph 34.5 mph N/A   Clear
3:55 PM 71.6 °F - 14.0 °F 11% 29.61 in 10.0 mi South 28.8 mph 38.0 mph N/A   Clear
4:15 PM 71.6 °F - 14.0 °F 11% 29.61 in 10.0 mi SSW 26.5 mph 34.5 mph N/A   Clear
4:35 PM 71.6 °F - 14.0 °F 11% 29.60 in 10.0 mi South 21.9 mph 33.4 mph N/A   Clear
4:55 PM 71.6 °F - 14.0 °F 11% 29.58 in 10.0 mi South 21.9 mph 29.9 mph N/A   Clear
5:15 PM 73.4 °F - 14.0 °F 10% 29.57 in 10.0 mi South 25.3 mph 31.1 mph N/A   Clear
5:35 PM 71.6 °F - 14.0 °F 11% 29.57 in 10.0 mi SSW 21.9 mph 29.9 mph N/A   Clear
5:55 PM 71.6 °F - 12.2 °F 10% 29.56 in 10.0 mi SSW 24.2 mph 33.4 mph N/A   Clear
6:15 PM 71.6 °F - 12.2 °F 10% 29.57 in 10.0 mi SW 21.9 mph 29.9 mph N/A   Scattered Clouds
6:35 PM 69.8 °F - 12.2 °F 11% 29.58 in 10.0 mi SW 19.6 mph 28.8 mph N/A   Mostly Cloudy
6:55 PM 69.8 °F - 10.4 °F 10% 29.59 in 10.0 mi SW 21.9 mph - N/A   Overcast
7:15 PM 68.0 °F - 10.4 °F 11% 29.60 in 10.0 mi SW 27.6 mph 36.8 mph N/A   Overcast
7:35 PM 66.2 °F - 10.4 °F 11% 29.60 in 10.0 mi SW 24.2 mph 34.5 mph N/A   Overcast
7:55 PM 66.2 °F - 8.6 °F 11% 29.61 in 10.0 mi SW 19.6 mph 29.9 mph N/A   Overcast
8:15 PM 66.2 °F - 8.6 °F 11% 29.61 in 10.0 mi SW 25.3 mph 32.2 mph N/A   Overcast
8:35 PM 64.4 °F - 8.6 °F 11% 29.62 in 10.0 mi SW 23.0 mph 31.1 mph N/A   Overcast
8:55 PM 62.6 °F - 6.8 °F 11% 29.62 in 10.0 mi SW 24.2 mph 28.8 mph N/A   Overcast
9:15 PM 62.6 °F - 6.8 °F 11% 29.62 in 10.0 mi SW 20.7 mph - N/A   Overcast
9:35 PM 57.2 °F - 5.0 °F 12% 29.63 in 10.0 mi West 17.3 mph - N/A   Overcast
9:55 PM 55.4 °F - 15.8 °F 21% 29.64 in 10.0 mi West 13.8 mph - N/A   Overcast
10:15 PM 53.6 °F - 17.6 °F 24% 29.65 in 10.0 mi West 11.5 mph - N/A   Overcast
10:35 PM 51.8 °F - 19.4 °F 28% 29.67 in 10.0 mi West 12.7 mph - N/A   Overcast
10:55 PM 50.0 °F - 19.4 °F 30% 29.67 in 10.0 mi West 12.7 mph - N/A   Overcast
11:15 PM 48.2 °F - 19.4 °F 32% 29.68 in 10.0 mi West 11.5 mph - N/A   Overcast
11:35 PM 48.2 °F - 19.4 °F 32% 29.69 in 10.0 mi West 15.0 mph - N/A   Overcast
11:55 PM 48.2 °F - 19.4 °F 32% 29.70 in 8.0 mi WNW 25.3 mph 31.1 mph N/A   Overcast